Wind_Speed
8 9 10 10 9 9 8 7 6 6 6 5 6 7 7 8 10 11 13 12 9 10 10 9 8 8 7 7 7 7 9 9 10 11 11 12 13 14 15 16 17 18 19 20 21 23 24 24 23 22 21 20 17 12 8 9 13 15 15 18 18 16 15 14 14 15 17 18 17 13 9 7 6 7
9 9 10 11 10 10 9 8 7 7 6 6 6 7 8 8 8 9 12 13 11 10 9 9 9 9 8 8 8 9 10 10 10 11 11 13 14 14 16 17 18 19 20 21 22 22 22 21 20 19 18 17 13 9 8 9 13 15 15 16 17 15 14 14 14 14 15 16 17 15 11 8 5 5
9 9 10 11 11 11 10 9 9 9 8 8 8 8 8 8 9 9 11 13 11 10 9 8 9 10 9 8 9 10 11 10 10 11 12 14 15 16 17 19 20 21 21 22 21 20 20 18 17 17 16 14 12 9 8 9 12 14 14 15 16 15 13 13 13 13 13 15 16 16 14 10 7 5
9 10 10 11 11 12 11 10 10 11 10 10 10 9 9 9 9 10 11 14 12 10 9 9 9 9 9 9 11 11 11 11 11 13 14 16 17 18 19 19 20 22 21 20 19 18 17 15 14 16 16 13 11 10 9 10 12 12 12 14 16 16 14 13 13 12 12 13 14 15 16 13 9 6
9 10 10 10 11 12 12 12 12 12 12 12 11 11 10 9 9 10 11 13 13 10 8 8 9 9 10 11 13 12 12 11 12 13 15 17 18 19 19 19 20 21 19 17 16 15 13 12 12 14 14 13 12 11 11 11 11 11 11 13 16 17 16 14 12 12 11 11 12 13 14 15 13 9
10 11 11 10 10 12 13 13 13 13 13 12 12 10 10 9 8 9 9 10 12 11 8 8 9 10 12 13 14 14 14 14 14 14 15 16 17 18 18 19 19 18 16 14 13 11 10 10 11 12 12 12 12 13 13 11 10 10 11 11 14 16 17 16 13 12 11 10 10 11 12 13 13 12
10 11 11 10 11 12 13 13 13 13 13 12 11 10 9 9 9 9 9 9 11 11 9 9 10 12 13 13 14 14 14 15 15 15 14 15 17 18 18 17 15 14 13 11 10 9 8 8 9 10 11 11 11 11 11 9 9 11 10 10 11 14 16 16 15 13 12 10 9 9 9 10 11 12
11 12 11 11 11 12 12 12 12 12 12 12 11 11 10 11 10 10 11 10 10 9 9 10 12 14 14 14 14 14 14 14 14 13 13 15 17 17 16 15 13 11 10 8 8 8 8 8 8 9 10 11 11 10 9 8 9 11 10 9 9 11 13 15 15 14 13 11 10 9 8 7 8 9
11 12 12 12 11 12 12 12 12 12 11 11 12 12 11 11 11 11 11 10 9 8 9 11 13 15 15 14 13 14 14 13 13 12 13 15 16 15 14 13 11 9 8 7 7 8 8 9 9 10 10 11 11 11 10 9 9 11 10 9 8 8 10 12 13 13 12 11 10 9 7 6 6 6
12 12 12 12 12 12 12 12 12 12 12 12 12 12 12 11 11 11 11 10 9 8 9 11 14 15 15 14 13 14 14 14 14 14 14 14 15 14 14 12 10 9 9 8 8 9 9 9 10 10 11 11 12 12 11 11 11 11 10 9 8 7 7 9 10 10 10 10 10 8 7 6 5 4
13 13 12 12 12 13 14 14 13 12 12 13 13 12 12 12 12 12 12 11 10 10 10 11 14 15 15 14 13 14 14 14 15 16 16 15 15 13 13 12 9 8 10 9 9 9 9 9 9 9 10 10 10 11 11 11 11 11 9 8 8 7 6 6 7 8 8 8 8 7 7 6 5 5
14 14 13 13 13 13 14 14 13 13 14 14 13 13 12 13 14 13 13 12 12 12 12 11 13 14 13 13 13 13 13 14 15 16 17 17 15 13 12 12 9 8 12 12 9 8 8 8 9 8 7 8 8 9 9 9 9 9 9 8 8 8 7 7 7 8 8 7 6 5 5 5 5 5
14 14 14 14 13 13 13 13 13 13 13 13 13 12 13 13 14 14 14 14 14 14 14 12 13 13 13 13 13 13 14 14 15 15 15 15 14 11 10 11 10 9 13 15 11 9 9 9 8 8 6 6 6 7 7 8 9 9 8 8 8 8 8 8 8 9 9 9 8 6 4 4 4 4
15 15 16 15 14 14 13 13 13 13 12 12 12 12 12 13 14 15 15 15 15 16 15 14 13 13 12 12 13 13 14 14 14 15 14 14 13 11 9 10 11 10 12 14 12 10 9 8 7 7 7 6 6 7 8 9 9 10 9 9 9 9 9 8 8 9 9 10 10 8 7 6 4 3
17 16 17 17 15 14 13 12 12 12 12 12 12 12 12 14 15 16 16 17 17 17 17 15 14 14 13 12 12 13 13 13 13 14 14 13 12 12 11 12 12 11 12 14 12 9 8 6 5 6 7 7 7 8 8 9 9 10 10 10 10 10 10 9 8 9 9 10 10 9 8 8 7 5
18 18 18 18 16 15 13 12 12 12 12 12 12 13 13 14 15 16 16 17 17 17 17 16 15 15 14 13 12 13 13 13 13 13 12 12 12 11 11 13 13 12 12 13 12 9 7 5 3 4 5 6 7 7 8 8 9 10 10 11 11 11 11 11 10 10 10 11 11 10 10 9 9 9
20 19 19 19 18 17 15 14 14 14 14 14 15 15 15 15 15 15 16 16 16 16 16 16 16 16 15 14 14 14 14 13 13 13 12 11 11 10 11 12 13 12 12 12 13 10 6 4 1 2 3 5 6 7 7 8 9 10 11 11 11 12 12 12 12 13 13 13 13 12 11 10 10 11
22 21 21 22 21 20 19 18 16 16 16 16 16 17 17 17 17 16 16 16 16 17 17 17 17 17 16 16 15 15 15 14 14 13 11 11 10 10 9 10 11 12 12 13 13 11 7 5 1 1 2 4 6 7 8 8 10 11 12 12 11 12 12 12 13 13 13 13 12 12 12 11 11 13
23 22 23 24 24 24 24 22 20 19 18 18 18 18 18 18 18 17 16 16 16 17 17 17 18 18 17 17 16 16 16 15 14 13 11 10 9 7 7 8 9 11 13 14 13 11 7 5 2 1 1 3 6 7 8 9 11 12 12 12 11 11 11 11 11 11 11 10 10 10 10 10 11 11
27 27 27 27 26 26 26 26 24 22 21 20 20 19 19 19 18 17 17 16 16 17 17 18 18 18 18 17 17 17 16 16 14 13 11 8 6 5 5 7 9 11 14 14 12 10 7 5 3 1 2 3 5 7 8 10 11 11 11 11 10 10 10 10 10 10 9 9 8 8 8 8 9 9
32 32 32 32 31 28 27 27 27 25 25 24 22 21 20 19 19 18 17 17 17 17 18 18 19 18 18 18 17 17 16 15 14 12 9 7 6 6 6 7 10 12 14 13 11 8 6 5 4 2 3 5 6 8 9 10 10 10 10 10 9 9 9 8 9 9 8 8 8 8 8 8 8 9
34 34 33 34 34 32 31 30 28 27 27 26 24 22 21 20 20 19 18 18 18 18 18 19 19 19 18 18 17 16 15 14 13 11 9 9 9 9 9 9 11 12 12 10 8 6 6 5 4 3 4 5 7 9 10 10 9 8 8 8 7 8 8 8 8 8 8 8 8 7 7 7 8 9
36 36 35 35 34 33 33 33 31 28 28 27 25 23 22 21 21 19 19 19 19 19 19 19 19 19 18 17 16 15 14 13 11 10 10 10 10 10 10 10 10 10 9 8 6 5 5 6 6 6 5 4 6 10 11 10 9 8 7 6 6 6 6 7 7 8 8 9 9 8 8 7 7 8
34 35 36 37 37 35 34 33 32 30 29 27 25 23 21 20 20 19 19 20 20 20 20 20 19 18 17 15 15 14 12 11 10 9 9 9 9 9 10 10 9 7 6 6 5 5 6 8 8 9 8 6 6 8 9 9 9 9 8 7 7 6 6 6 7 8 8 9 9 9 9 10 10 11
27 29 32 35 37 37 35 33 33 32 30 28 24 20 19 19 19 19 20 20 21 21 20 19 18 16 14 13 13 12 10 9 8 7 7 7 8 8 8 7 6 5 4 5 6 7 8 9 9 9 9 8 7 8 8 8 8 9 10 10 9 8 8 8 8 9 9 9 10 10 11 11 12 13
22 24 28 31 34 37 38 38 35 32 29 25 21 18 17 17 19 19 19 18 18 18 17 16 15 13 12 10 10 9 8 7 6 5 5 6 7 7 5 4 4 4 5 6 7 8 9 10 10 10 9 8 8 8 8 6 6 7 9 11 10 10 10 11 11 11 11 11 12 12 13 13 13 13
17 16 19 22 27 32 36 35 32 28 25 22 19 17 16 17 18 18 17 16 16 16 15 13 12 11 9 9 10 9 8 5 4 4 4 5 6 5 5 5 6 6 6 7 8 9 10 10 11 11 10 9 9 8 7 7 6 6 8 11 12 12 13 13 13 13 13 13 13 12 12 12 12 12
13 12 13 14 17 21 26 27 27 26 23 20 18 17 15 15 16 16 16 15 16 16 13 10 10 10 10 11 11 10 7 4 2 2 3 5 6 6 7 8 8 8 8 9 10 11 11 11 12 12 11 10 9 8 8 8 8 7 8 10 12 14 14 14 14 14 14 13 13 13 13 13 13 13
11 10 11 11 11 10 11 14 17 17 16 15 14 13 13 12 11 12 14 15 17 16 9 4 6 8 11 11 10 8 5 4 4 4 5 6 7 8 9 9 9 10 10 11 11 12 13 13 13 13 12 11 10 10 9 10 11 11 11 11 12 13 14 14 14 14 14 14 14 14 15 15 16 16
10 9 9 9 9 8 6 5 5 5 7 9 8 8 9 9 8 10 11 10 12 12 5 5 7 8 10 10 8 8 8 8 7 6 7 8 9 10 10 11 11 12 12 13 13 13 14 14 14 13 13 12 12 11 11 12 13 14 14 14 14 13 14 14 15 15 16 16 16 15 16 16 16 16
9 8 8 8 9 9 8 6 6 6 4 5 5 6 7 6 6 7 6 4 5 4 5 10 10 8 9 10 11 11 11 9 8 9 9 9 10 11 12 12 13 13 14 14 14 15 15 14 15 14 14 14 13 13 13 14 14 14 15 15 15 15 16 16 16 16 17 17 17 17 16 16 16 16
8 7 6 6 6 8 8 6 7 6 3 2 2 3 4 4 5 4 2 1 1 1 5 10 11 9 10 11 11 11 11 9 10 11 11 11 12 12 13 14 14 15 15 15 15 15 15 16 16 15 15 14 14 14 14 14 14 14 15 15 16 17 18 19 19 19 19 19 19 19 18 18 18 18
9 6 5 3 3 3 4 4 5 6 5 2 2 2 2 2 4 4 3 3 3 4 6 8 9 9 10 11 10 11 11 11 12 12 12 13 13 14 14 14 15 15 16 16 16 16 16 16 15 15 15 15 15 15 14 14 14 15 16 17 17 18 19 20 20 21 21 21 22 22 22 21 20 19
8 5 3 2 1 1 1 1 1 3 4 3 2 2 2 2 3 4 4 4 5 6 7 8 8 9 9 9 9 10 11 11 12 12 13 14 14 14 14 14 15 16 17 17 18 17 17 16 16 15 15 16 16 16 16 15 16 17 17 18 19 19 20 21 21 22 22 23 23 24 23 21 20 18
6 4 3 4 5 4 2 2 2 1 2 2 2 1 2 3 4 5 5 6 6 6 6 6 6 6 6 7 8 9 10 11 12 13 13 14 14 14 14 15 15 16 17 17 17 18 18 18 19 19 19 18 18 18 18 17 18 19 19 19 19 20 21 21 22 22 23 23 23 23 22 21 19 17
4 3 3 6 7 6 5 4 3 4 6 6 5 4 4 4 4 5 5 4 4 3 3 3 4 4 5 7 8 9 10 11 12 13 13 13 14 14 14 15 15 16 16 17 18 19 20 21 22 23 23 23 22 22 20 18 17 19 20 19 19 20 21 22 22 23 22 22 21 20 20 20 18 17
4 2 2 5 6 5 4 3 2 2 2 3 3 3 2 2 1 1 1 1 2 3 4 5 5 6 7 8 9 10 11 12 12 13 13 13 13 14 14 15 16 17 18 19 20 21 22 23 24 24 25 25 24 24 22 19 17 17 18 18 19 20 21 22 23 22 21 20 19 18 18 18 17 17
4 2 1 2 2 2 2 3 3 3 3 2 1 1 1 2 2 3 4 5 6 7 8 8 8 9 9 10 10 11 12 13 13 14 14 14 15 16 16 17 18 19 20 21 22 23 23 24 24 24 24 24 23 23 23 21 19 18 18 19 19 19 20 21 21 20 19 18 17 16 16 17 17 17
3 3 3 3 3 3 3 2 2 1 2 2 3 3 4 4 5 6 7 8 9 10 10 11 12 12 12 12 12 13 13 14 14 15 15 16 17 18 18 19 20 21 21 22 23 23 23 23 22 22 22 22 22 22 23 22 21 20 19 19 18 17 17 18 18 17 17 17 17 18 18 17 17 17
2 1 1 1 1 1 1 2 2 3 4 4 5 6 6 7 8 9 10 11 12 12 13 13 14 14 14 14 14 14 15 15 16 17 17 18 19 19 20 21 21 21 22 22 22 22 21 21 21 21 21 21 21 21 21 21 20 19 17 16 15 15 15 15 15 15 15 16 17 18 18 18 18 16
1 1 1 1 2 2 3 3 4 5 6 6 7 8 9 10 11 12 13 13 13 14 14 14 14 15 15 15 16 16 17 17 18 18 19 19 19 20 20 20 20 20 20 20 20 19 19 20 20 19 20 20 19 19 18 18 18 17 15 13 13 13 13 13 13 14 14 15 16 16 15 15 15 14
3 4 4 4 4 4 5 5 6 7 8 9 9 10 11 12 13 13 14 14 14 15 15 15 16 16 17 17 18 18 18 19 19 19 19 19 19 19 18 18 18 18 18 19 19 18 18 19 18 17 17 17 17 16 16 16 16 16 15 13 12 11 10 10 10 10 12 13 14 14 13 13 12 12
4 5 5 5 6 6 7 8 9 9 10 11 12 13 13 14 14 15 15 15 16 16 16 17 17 18 18 18 19 19 19 19 19 18 18 18 17 17 17 16 16 17 17 18 18 18 17 17 16 15 14 14 15 14 14 13 13 12 11 11 10 9 7 7 6 6 8 11 12 12 13 13 13 13
5 6 7 8 8 9 10 11 11 12 13 14 14 15 15 16 16 16 16 16 17 17 17 18 18 19 19 19 18 18 18 18 18 17 16 16 15 15 15 15 15 16 16 17 16 16 15 14 14 13 12 12 12 12 10 9 8 8 8 8 8 9 9 9 8 7 7 8 9 10 11 12 12 12
7 8 9 10 10 11 12 13 14 14 15 16 16 16 17 17 16 16 16 17 17 17 18 18 19 19 19 18 18 17 17 16 15 15 14 14 14 14 14 14 14 14 15 15 15 13 12 12 11 11 10 10 9 9 9 8 7 6 6 6 8 10 11 12 12 11 10 10 10 11 12 13 13 13
Wind_Direction
266 264 263 263 266 269 273 278 283 292 302 309 313 316 320 328 335 337 336 340 351 359 359 356 357 2 4 357 352 346 344 345 346 345 346 346 343 340 340 341 342 341 337 333 331 330 330 332 335 339 344 349 354 9 28 20 10 11 11 12 16 21 26 31 34 36 37 39 43 50 58 71 100 125
265 263 260 258 260 264 270 275 278 285 292 299 306 305 302 309 320 326 325 326 335 348 350 347 346 351 358 355 351 349 343 342 345 344 340 339 336 333 331 333 336 338 335 333 330 330 331 333 338 345 350 357 7 25 35 19 11 15 16 15 19 24 27 30 34 36 38 41 44 47 53 58 74 112
263 263 263 259 256 258 265 270 275 280 285 289 295 297 294 297 305 313 313 313 323 339 340 337 338 343 349 350 350 350 343 338 339 336 331 330 329 327 327 330 335 337 336 335 333 333 337 339 345 352 356 3 15 25 26 14 9 14 20 23 27 30 29 30 34 35 37 41 44 47 51 54 59 75
263 263 264 261 255 255 260 266 272 278 281 284 288 290 288 287 295 304 306 305 313 328 331 329 333 338 341 342 343 346 343 335 329 326 327 327 327 327 329 332 336 338 337 336 337 340 343 347 353 357 359 3 12 18 15 10 9 15 23 31 36 36 33 31 33 35 37 39 42 46 50 53 56 59
263 263 264 261 255 255 260 266 272 279 284 285 286 286 283 280 284 294 300 301 306 316 325 329 332 334 338 341 342 343 342 338 332 329 329 328 328 330 334 337 337 337 338 339 344 348 349 354 0 0 359 0 5 8 8 12 17 20 24 34 40 40 38 35 32 34 37 38 39 43 48 52 55 57
263 264 265 263 260 260 262 267 272 276 281 284 285 285 283 281 280 285 291 295 299 308 321 331 331 333 338 342 344 344 344 344 342 337 334 332 333 335 339 340 338 338 341 345 350 352 353 358 4 1 357 357 359 1 6 14 20 19 24 33 38 40 41 39 34 32 34 36 38 40 43 48 53 56
259 260 264 267 266 264 264 267 271 273 276 278 279 277 279 282 278 274 279 286 292 301 317 330 331 333 339 343 344 344 345 345 341 338 337 338 338 339 341 344 343 343 347 350 350 351 351 354 358 358 354 350 351 356 4 10 11 13 22 29 31 36 41 42 40 35 31 32 33 35 38 42 47 53
258 258 264 270 270 268 267 267 269 272 275 276 273 271 274 277 272 267 269 274 281 292 312 327 332 335 338 341 341 339 341 342 339 338 340 340 340 341 345 350 351 348 348 349 346 344 344 344 345 347 346 343 342 347 353 358 2 7 14 20 24 31 37 39 40 40 37 32 29 29 30 32 38 45
261 264 269 274 274 272 271 271 271 273 275 275 272 271 273 271 267 264 261 262 269 285 306 321 329 335 336 338 337 335 336 338 337 340 342 340 341 344 347 354 357 350 347 346 339 336 337 336 334 334 334 333 333 335 338 340 348 356 1 8 15 25 38 39 35 38 42 38 31 28 25 23 25 30
263 266 270 273 274 274 275 275 274 272 272 274 272 269 266 262 259 257 257 260 266 281 301 314 323 330 333 333 333 333 334 334 335 336 338 340 345 347 348 357 2 353 350 348 338 336 336 334 330 325 324 326 326 327 331 333 340 348 354 0 3 8 30 39 31 31 40 40 35 30 25 19 16 13
265 267 270 273 275 276 277 276 274 271 270 271 271 267 259 251 249 252 255 259 264 276 293 306 315 324 328 328 329 331 330 329 331 334 337 343 349 349 348 356 5 2 3 0 346 343 346 341 336 330 325 326 327 328 333 337 344 353 358 3 5 2 4 15 15 12 21 32 34 32 29 22 15 10
267 267 269 273 276 278 278 276 273 270 269 270 272 270 261 249 246 249 253 255 261 272 284 297 309 317 321 321 323 325 322 323 329 335 340 343 345 348 349 352 358 7 11 9 357 351 356 353 349 345 336 333 334 334 336 339 347 357 5 7 8 6 358 352 350 348 349 358 8 18 29 28 20 16
267 267 267 269 273 278 280 278 274 269 268 272 274 271 263 255 251 252 254 256 262 271 280 292 303 309 313 315 318 320 320 324 331 337 339 337 337 344 349 346 347 358 7 7 4 2 7 8 2 357 356 356 353 345 341 342 347 351 355 356 356 357 352 341 334 331 330 333 337 340 353 11 21 23
270 269 268 267 269 273 277 278 275 271 270 271 272 269 264 262 261 261 260 261 265 272 279 287 294 298 304 309 313 317 319 325 330 333 334 332 331 335 337 337 343 352 359 4 7 12 18 21 13 9 17 19 9 2 1 359 353 347 344 345 345 345 342 335 327 324 323 324 326 327 327 330 339 356
274 273 271 269 267 268 272 273 270 268 268 270 270 269 266 264 263 263 263 265 266 270 275 278 284 291 298 304 309 313 316 321 325 327 328 328 328 328 325 327 336 345 353 359 5 15 25 27 17 14 20 19 11 10 11 3 352 348 346 345 343 341 337 335 330 326 325 324 324 323 322 322 320 318
276 274 271 269 265 262 265 268 267 266 268 271 272 271 269 268 266 265 266 268 267 268 270 273 279 286 292 296 302 308 312 315 318 320 321 321 322 323 319 318 324 332 343 350 352 3 26 37 13 3 10 10 7 5 2 356 349 348 346 342 340 338 335 334 332 329 328 327 326 325 325 326 324 317
274 271 270 267 264 262 260 262 264 268 272 275 275 272 269 269 269 269 270 270 269 268 268 272 277 283 286 290 297 303 307 310 311 313 314 313 315 317 311 309 315 321 331 340 341 347 16 45 28 344 352 349 351 353 353 355 354 351 348 344 340 337 333 330 328 325 322 320 320 322 324 325 323 319
271 271 269 267 265 263 261 260 262 266 272 276 278 277 272 268 267 269 269 269 268 267 268 271 276 279 282 287 293 299 303 305 306 307 307 307 310 311 305 303 309 314 322 332 335 337 4 39 50 270 315 322 335 350 351 349 350 351 352 350 345 341 338 334 331 327 323 318 317 319 323 326 325 323
269 272 272 271 268 263 260 260 260 262 268 274 278 279 276 270 268 268 267 266 264 264 266 269 272 276 280 284 290 295 299 300 301 303 305 308 309 305 299 299 304 310 316 324 329 334 356 30 45 251 295 310 324 343 349 346 349 352 352 351 349 347 346 345 345 344 340 333 327 325 328 332 333 331
265 268 271 273 271 266 261 260 261 263 267 272 277 279 276 270 267 266 264 263 261 262 264 266 269 274 278 283 288 291 294 295 298 303 307 308 302 291 288 293 298 306 311 318 327 335 351 27 50 328 306 305 314 336 348 351 355 355 354 352 349 347 348 351 354 358 0 359 354 350 349 347 348 348
266 268 269 270 270 268 266 263 262 263 266 269 273 277 275 269 265 263 261 259 259 259 262 265 268 272 275 281 286 287 289 293 299 304 303 295 284 279 281 288 296 304 310 317 328 336 346 21 47 4 318 313 317 334 347 353 357 357 353 351 347 344 345 348 351 356 1 6 7 8 7 3 3 9
268 270 271 269 267 266 267 266 262 259 263 268 271 272 271 267 263 261 260 260 260 260 262 265 269 272 275 280 281 281 285 292 296 295 288 279 278 281 283 290 300 306 310 315 327 337 343 359 17 7 344 327 322 335 346 350 353 354 351 347 343 340 340 342 345 345 346 348 352 355 355 353 358 4
268 268 269 268 266 263 263 263 261 257 257 262 266 267 267 265 262 258 258 260 261 262 263 266 269 272 275 276 277 278 283 288 286 282 276 274 278 283 288 296 304 306 306 312 326 338 335 336 343 352 358 346 328 335 343 345 345 346 344 341 336 331 331 333 333 335 336 334 333 332 330 326 323 321
271 270 268 266 264 262 259 257 256 254 253 255 258 261 264 266 263 260 257 258 261 262 263 265 267 269 271 271 272 275 278 277 273 270 271 273 278 287 296 304 310 307 301 309 327 338 332 331 336 341 347 350 339 336 340 342 340 337 335 340 341 334 328 324 323 326 328 326 323 321 317 314 311 307
279 275 271 265 261 259 257 254 251 248 246 247 249 254 261 265 265 262 258 257 259 260 260 262 262 261 261 263 265 265 262 258 259 263 267 272 282 294 303 310 315 314 309 316 330 336 330 328 332 335 341 346 343 340 343 343 340 337 336 340 342 338 336 337 334 331 327 325 323 320 317 315 314 312
290 285 279 272 264 258 254 250 247 243 239 238 243 250 257 262 263 261 257 257 260 260 258 257 255 255 256 253 247 242 236 234 242 252 265 280 293 301 306 313 322 329 331 332 334 334 330 330 335 341 344 344 340 339 339 338 345 350 341 336 337 340 341 340 337 333 331 330 329 326 324 322 318 315
307 304 297 286 273 261 251 245 244 243 237 235 240 246 250 253 254 253 251 253 259 262 260 258 257 253 242 224 216 215 213 216 231 246 265 288 302 311 322 334 340 341 339 335 331 329 330 334 340 344 346 344 339 334 331 331 341 348 339 332 334 337 336 333 332 332 332 332 331 329 326 323 320 320
324 323 320 313 293 271 254 242 238 237 233 232 235 235 234 238 243 247 252 256 261 262 260 258 256 240 211 198 202 203 201 211 247 260 269 288 303 315 326 333 336 334 330 327 324 324 328 333 339 343 345 345 339 333 331 331 330 331 331 328 326 325 325 326 327 328 328 328 327 326 323 320 320 321
337 331 330 334 331 306 268 243 232 229 226 226 230 229 230 236 243 256 267 271 271 271 269 253 239 215 192 192 199 202 218 251 264 256 259 276 292 304 314 319 320 317 316 316 317 320 324 328 334 339 342 341 336 331 331 328 324 323 324 323 320 319 320 322 322 323 324 324 324 324 324 324 324 323
346 341 339 339 344 345 326 285 265 256 239 236 244 253 259 263 261 267 278 285 285 282 259 180 182 184 185 197 215 231 249 260 255 242 246 264 281 292 299 302 302 302 305 308 311 314 318 321 327 332 333 332 329 325 324 323 322 323 323 323 321 317 315 316 317 319 321 321 323 326 326 325 323 322
347 345 345 341 339 340 335 329 334 331 295 269 275 274 266 262 259 269 292 329 323 294 206 188 201 217 222 228 237 241 242 242 238 238 244 257 270 279 285 289 290 292 296 300 303 306 310 314 318 321 323 323 323 322 322 323 323 323 321 319 318 316 314 313 314 315 317 318 320 323 323 322 322 322
338 335 340 343 341 339 342 356 12 7 346 268 234 234 240 248 249 256 285 347 306 249 194 203 223 237 232 229 231 231 231 233 236 240 246 255 262 268 274 279 283 286 290 293 295 298 301 305 308 312 315 318 319 321 322 323 320 318 315 314 314 314 314 314 315 316 318 319 321 322 323 325 325 322
328 322 321 327 329 327 332 2 24 22 22 53 143 176 202 224 215 207 210 219 210 188 184 198 207 208 208 213 219 225 232 238 243 249 257 262 265 268 270 273 278 282 285 287 288 289 293 297 301 307 311 314 316 317 318 317 315 313 313 313 313 313 312 314 317 320 322 323 324 324 326 329 328 326
320 303 278 267 232 206 273 306 39 39 39 52 82 120 145 167 181 191 198 187 170 168 175 182 188 195 203 215 225 234 242 251 257 264 268 268 270 272 272 273 277 279 281 284 285 288 292 295 299 304 308 310 313 314 314 315 314 313 313 313 314 314 315 318 322 325 327 329 327 327 328 331 332 333
314 290 244 212 188 175 175 162 151 181 279 268 260 250 216 203 195 187 177 162 156 165 177 184 194 208 222 236 248 256 263 268 270 270 270 271 272 273 273 274 276 278 281 284 287 292 296 300 304 307 309 310 312 313 314 316 315 313 314 316 317 317 319 322 324 327 328 328 327 327 328 329 331 333
319 298 247 217 216 232 248 237 237 265 267 253 240 234 223 210 194 179 169 160 159 182 203 218 240 258 267 272 275 276 275 274 273 272 272 272 273 274 276 278 280 282 286 289 292 297 302 306 309 312 313 314 315 316 317 318 317 315 315 317 318 318 319 320 322 324 325 325 325 326 325 324 325 325
358 332 261 234 241 259 262 245 240 242 214 191 187 188 190 203 215 226 257 291 302 302 303 303 300 298 297 295 292 288 285 281 279 277 277 277 278 279 280 282 284 287 290 293 297 301 305 308 311 313 314 315 316 316 317 319 320 317 315 316 317 317 317 318 319 321 322 323 323 323 321 320 321 322
34 59 111 147 143 127 127 124 117 121 126 118 99 74 359 321 315 317 317 316 315 315 317 317 314 312 309 304 299 293 288 285 283 282 282 283 283 284 284 286 288 291 293 297 300 303 307 310 312 313 315 316 317 317 318 319 321 321 320 322 321 319 318 318 319 321 322 322 319 317 317 318 320 320
66 93 98 101 104 106 108 100 82 60 35 10 353 345 342 337 332 326 320 317 316 316 316 314 313 311 307 303 298 293 289 287 285 285 285 286 287 288 289 291 293 295 298 301 304 307 310 312 313 314 315 316 317 318 319 320 322 324 326 326 323 319 318 318 318 319 321 318 315 315 317 319 320 320
76 87 78 86 90 70 30 10 357 347 345 342 338 336 334 329 324 319 316 315 315 314 313 311 309 306 303 300 296 293 291 290 289 289 290 291 292 293 295 296 299 301 304 306 308 311 313 314 314 314 315 315 316 318 319 320 321 322 323 321 317 314 315 316 316 318 319 317 316 318 320 321 323 324
2 354 354 357 353 346 337 333 332 332 331 329 326 324 321 318 316 315 314 314 315 314 313 312 309 306 303 301 298 296 295 295 295 295 297 297 298 300 302 304 305 307 309 309 311 313 313 313 314 315 315 315 316 317 316 314 314 315 315 314 311 310 310 310 312 314 315 317 319 323 324 326 328 330
344 348 350 344 338 334 332 329 327 324 323 321 320 319 317 316 316 315 315 315 314 313 312 310 307 305 304 302 302 302 301 301 301 302 303 304 305 306 307 308 308 309 310 310 312 314 314 314 315 316 315 314 313 311 309 308 310 313 315 315 313 310 308 306 306 308 311 316 322 328 331 334 337 337
335 336 336 334 331 329 327 324 324 322 321 321 320 320 319 319 318 317 316 314 312 310 309 307 306 305 305 305 305 305 305 305 305 306 307 308 309 309 309 309 309 310 310 311 312 314 314 313 314 314 313 310 309 309 310 312 316 321 323 324 324 324 322 321 320 319 317 318 321 325 329 333 337 337
326 326 325 325 325 325 323 323 323 322 321 320 320 319 318 317 316 314 312 311 310 309 308 308 308 307 307 307 307 307 307 307 308 309 310 310 310 309 310 310 310 310 310 310 311 312 312 312 314 316 315 313 313 315 318 322 328 332 333 334 337 341 343 344 343 339 332 322 318 318 321 324 326 325
329 327 325 324 323 322 321 321 321 320 320 320 319 318 317 315 314 312 311 310 310 309 309 310 310 310 310 309 309 309 309 309 310 312 312 312 311 311 312 312 312 312 311 311 312 314 314 316 319 321 320 318 317 319 322 327 332 337 340 343 346 348 349 349 347 347 346 340 330 324 322 320 317 315
Height
1605 1605 1605 1605 1605 1605 1605 1605 1605 1604 1604 1604 1604 1603 1603 1602 1602 1601 1600 1600 1599 1599 1598 1597 1596 1595 1595 1593 1592 1591 1590 1589 1588 1587 1586 1585 1583 1582 1581 1580 1578 1577 1575 1573 1571 1569 1567 1565 1563 1561 1560 1558 1557 1556 1556 1555 1554 1553 1552 1550 1549 1547 1546 1545 1545 1544 1543 1541 1540 1540 1540 1540 1540 1540
1604 1604 1604 1604 1604 1604 1604 1604 1604 1604 1604 1603 1603 1603 1602 1602 1602 1601 1600 1599 1599 1599 1598 1597 1596 1595 1594 1593 1592 1591 1590 1589 1588 1587 1586 1584 1583 1582 1580 1579 1577 1576 1574 1572 1570 1568 1566 1564 1562 1560 1559 1558 1557 1556 1556 1555 1555 1553 1552 1551 1549 1548 1547 1546 1545 1545 1544 1543 1542 1541 1541 1541 1541 1541
1603 1603 1603 1603 1603 1603 1603 1603 1603 1603 1603 1602 1602 1602 1602 1601 1601 1601 1600 1599 1598 1598 1597 1596 1596 1595 1594 1593 1592 1591 1590 1588 1587 1586 1585 1584 1582 1581 1580 1578 1577 1575 1573 1571 1569 1567 1565 1563 1562 1560 1559 1558 1557 1557 1556 1556 1555 1554 1552 1551 1550 1549 1548 1547 1546 1546 1545 1545 1544 1543 1543 1542 1542 1543
1602 1602 1602 1602 1601 1602 1602 1602 1602 1602 1601 1601 1601 1601 1601 1600 1600 1600 1599 1598 1597 1597 1597 1596 1595 1594 1593 1593 1591 1590 1589 1588 1587 1586 1585 1583 1582 1580 1579 1577 1576 1574 1572 1570 1568 1566 1564 1563 1562 1560 1559 1558 1557 1557 1557 1556 1555 1554 1553 1552 1551 1549 1548 1548 1547 1546 1546 1546 1545 1545 1544 1544 1544 1544
1601 1600 1600 1600 1600 1600 1600 1601 1600 1600 1600 1600 1600 1599 1599 1599 1599 1598 1598 1597 1596 1596 1596 1596 1595 1594 1593 1592 1591 1590 1589 1588 1587 1585 1584 1582 1581 1579 1578 1577 1575 1573 1571 1569 1568 1566 1564 1563 1562 1560 1559 1558 1558 1557 1557 1556 1555 1554 1553 1552 1551 1550 1549 1548 1548 1547 1547 1546 1546 1546 1545 1545 1545 1544
1599 1599 1599 1599 1599 1599 1599 1599 1599 1599 1599 1598 1598 1598 1598 1598 1598 1597 1597 1596 1595 1595 1595 1595 1594 1593 1592 1591 1590 1588 1588 1587 1586 1584 1583 1581 1580 1578 1577 1576 1574 1572 1570 1569 1568 1566 1565 1563 1562 1561 1560 1559 1558 1558 1557 1556 1555 1554 1554 1553 1552 1551 1550 1549 1548 1548 1547 1547 1547 1547 1546 1546 1546 1546
1598 1598 1598 1598 1598 1598 1598 1598 1598 1597 1597 1597 1597 1597 1597 1597 1596 1596 1595 1595 1594 1594 1594 1594 1593 1592 1591 1590 1589 1588 1587 1586 1585 1584 1582 1581 1579 1578 1577 1575 1573 1572 1570 1569 1568 1567 1565 1564 1563 1561 1560 1559 1559 1558 1557 1556 1556 1555 1554 1553 1552 1552 1551 1550 1549 1549 1548 1548 1548 1547 1547 1547 1546 1546
1597 1596 1597 1597 1597 1596 1596 1596 1596 1596 1596 1596 1595 1596 1595 1595 1595 1595 1594 1594 1593 1593 1593 1592 1592 1591 1590 1589 1588 1587 1586 1586 1584 1583 1582 1581 1579 1577 1576 1575 1573 1572 1571 1569 1568 1567 1566 1564 1563 1562 1561 1559 1559 1558 1558 1557 1556 1555 1554 1554 1553 1552 1551 1551 1550 1549 1549 1548 1548 1547 1547 1547 1547 1546
1595 1595 1595 1595 1595 1595 1595 1595 1595 1595 1594 1594 1594 1594 1594 1594 1593 1593 1593 1593 1592 1592 1591 1591 1590 1590 1589 1588 1587 1586 1585 1585 1584 1583 1582 1580 1579 1577 1576 1575 1573 1572 1571 1570 1568 1567 1566 1565 1563 1562 1561 1560 1559 1558 1557 1557 1556 1555 1555 1554 1553 1553 1552 1551 1551 1550 1549 1548 1548 1547 1547 1547 1546 1546
1594 1594 1594 1594 1594 1594 1593 1593 1593 1593 1593 1593 1592 1592 1592 1592 1592 1592 1591 1591 1591 1591 1590 1589 1589 1589 1588 1587 1586 1585 1584 1584 1583 1582 1581 1580 1578 1577 1576 1575 1573 1572 1571 1570 1568 1567 1566 1565 1563 1562 1561 1560 1559 1558 1557 1556 1556 1555 1555 1554 1553 1553 1552 1551 1551 1550 1549 1549 1548 1547 1546 1546 1545 1545
1593 1593 1592 1592 1592 1592 1592 1592 1592 1591 1591 1591 1591 1591 1590 1590 1590 1590 1590 1590 1589 1589 1589 1588 1587 1587 1586 1586 1585 1584 1584 1583 1582 1581 1580 1579 1578 1577 1575 1575 1574 1572 1571 1570 1568 1567 1566 1564 1563 1562 1561 1559 1558 1557 1556 1556 1555 1555 1554 1554 1554 1553 1552 1552 1551 1550 1549 1548 1548 1547 1546 1545 1545 1545
1591 1591 1591 1591 1590 1590 1590 1590 1590 1589 1589 1589 1589 1589 1589 1589 1588 1588 1588 1588 1588 1587 1587 1586 1586 1585 1585 1584 1584 1583 1583 1582 1581 1580 1579 1578 1577 1576 1575 1574 1573 1572 1571 1570 1569 1567 1566 1564 1563 1562 1560 1559 1558 1557 1556 1555 1555 1554 1554 1554 1553 1553 1553 1552 1551 1550 1549 1548 1548 1547 1546 1545 1545 1545
1590 1589 1589 1589 1589 1589 1588 1588 1588 1587 1587 1587 1587 1587 1587 1587 1587 1587 1587 1586 1586 1586 1585 1585 1584 1584 1583 1583 1582 1582 1581 1581 1580 1579 1578 1577 1576 1576 1575 1573 1573 1572 1571 1570 1568 1567 1566 1564 1563 1561 1560 1559 1558 1557 1555 1555 1554 1554 1554 1554 1553 1553 1552 1552 1551 1550 1549 1549 1548 1547 1546 1545 1545 1544
1588 1588 1588 1587 1587 1587 1587 1586 1586 1586 1585 1585 1585 1585 1585 1585 1585 1585 1585 1584 1584 1584 1583 1583 1583 1582 1582 1581 1581 1580 1580 1579 1579 1578 1577 1577 1575 1575 1574 1573 1572 1572 1571 1570 1568 1567 1566 1564 1563 1561 1560 1559 1558 1557 1555 1555 1554 1554 1554 1553 1553 1552 1552 1551 1551 1550 1549 1549 1548 1547 1547 1545 1544 1544
1586 1586 1586 1585 1585 1585 1585 1584 1584 1584 1584 1583 1583 1583 1583 1583 1583 1582 1582 1582 1582 1581 1581 1581 1581 1580 1580 1580 1579 1579 1578 1578 1578 1577 1576 1575 1574 1574 1573 1572 1571 1571 1570 1569 1568 1567 1566 1565 1563 1562 1561 1559 1558 1557 1556 1556 1555 1554 1553 1553 1552 1552 1551 1550 1550 1549 1549 1548 1547 1547 1546 1545 1544 1542
1584 1583 1583 1583 1583 1583 1582 1582 1582 1582 1582 1581 1581 1581 1581 1580 1580 1580 1580 1580 1579 1579 1579 1579 1579 1579 1578 1578 1578 1577 1577 1577 1576 1575 1575 1574 1573 1573 1572 1571 1570 1570 1569 1568 1568 1567 1566 1565 1564 1562 1561 1560 1559 1558 1558 1557 1556 1555 1554 1553 1552 1551 1550 1550 1549 1549 1548 1548 1547 1546 1545 1544 1543 1541
1581 1581 1581 1581 1581 1580 1580 1580 1580 1580 1579 1579 1579 1579 1578 1578 1578 1577 1577 1577 1577 1577 1577 1577 1577 1577 1577 1576 1576 1575 1575 1575 1574 1574 1573 1572 1572 1571 1571 1570 1569 1569 1569 1568 1567 1566 1566 1565 1564 1562 1561 1560 1559 1559 1558 1557 1556 1555 1554 1553 1552 1551 1550 1549 1549 1548 1548 1547 1546 1545 1545 1544 1543 1541
1579 1578 1578 1578 1578 1578 1578 1577 1577 1577 1577 1577 1577 1576 1576 1576 1575 1575 1575 1575 1575 1575 1575 1575 1575 1575 1574 1574 1574 1573 1573 1573 1572 1572 1571 1571 1570 1570 1569 1569 1568 1568 1568 1567 1566 1566 1566 1565 1564 1562 1561 1560 1559 1559 1558 1557 1556 1555 1554 1553 1552 1550 1549 1549 1548 1547 1546 1546 1545 1544 1544 1543 1542 1541
1576 1576 1575 1575 1575 1575 1575 1575 1575 1575 1575 1574 1574 1574 1573 1573 1573 1573 1573 1572 1572 1573 1573 1573 1573 1572 1572 1572 1572 1571 1571 1571 1570 1570 1569 1569 1569 1568 1568 1567 1567 1567 1567 1567 1566 1565 1565 1565 1564 1562 1561 1560 1559 1559 1558 1557 1556 1554 1553 1552 1551 1550 1549 1548 1547 1546 1546 1545 1544 1543 1543 1542 1541 1541
1572 1572 1572 1572 1572 1572 1572 1573 1573 1572 1572 1572 1572 1571 1571 1571 1571 1571 1570 1570 1570 1570 1570 1571 1570 1570 1570 1570 1570 1569 1569 1568 1568 1568 1568 1567 1567 1567 1567 1567 1566 1566 1566 1565 1565 1564 1564 1564 1563 1562 1562 1561 1559 1559 1558 1557 1555 1554 1553 1552 1551 1550 1549 1548 1547 1547 1546 1545 1544 1543 1542 1541 1541 1540
1569 1569 1569 1568 1568 1569 1570 1570 1570 1570 1570 1570 1569 1569 1569 1569 1568 1568 1568 1568 1568 1568 1568 1568 1568 1568 1568 1568 1567 1567 1566 1566 1566 1566 1566 1566 1566 1566 1566 1566 1565 1564 1564 1564 1563 1563 1563 1563 1563 1562 1561 1560 1559 1558 1557 1556 1555 1554 1553 1552 1551 1550 1549 1548 1547 1547 1546 1546 1545 1544 1543 1542 1541 1540
1565 1565 1565 1564 1564 1565 1566 1566 1566 1566 1566 1567 1567 1566 1566 1566 1566 1566 1566 1566 1566 1566 1566 1566 1566 1566 1566 1566 1565 1564 1564 1564 1564 1565 1565 1565 1565 1565 1565 1564 1564 1563 1563 1563 1562 1562 1561 1561 1562 1562 1561 1560 1559 1557 1557 1556 1555 1554 1553 1552 1551 1550 1549 1548 1547 1547 1546 1546 1545 1544 1544 1543 1542 1541
1560 1560 1561 1561 1560 1560 1561 1561 1561 1562 1562 1562 1563 1563 1563 1563 1563 1564 1564 1564 1564 1564 1564 1564 1564 1563 1563 1563 1563 1562 1563 1563 1563 1563 1564 1564 1564 1563 1563 1563 1562 1562 1561 1561 1561 1561 1560 1560 1560 1560 1559 1559 1558 1556 1555 1554 1554 1553 1552 1552 1551 1550 1549 1548 1547 1547 1546 1545 1544 1544 1543 1543 1542 1541
1555 1555 1556 1556 1556 1555 1555 1556 1557 1557 1558 1558 1559 1560 1561 1561 1561 1561 1562 1562 1562 1562 1561 1561 1561 1561 1561 1561 1561 1561 1561 1562 1562 1562 1562 1562 1562 1562 1561 1561 1561 1561 1560 1560 1560 1559 1559 1558 1558 1557 1557 1557 1556 1555 1554 1553 1552 1551 1551 1550 1550 1550 1549 1548 1547 1547 1546 1545 1544 1543 1542 1542 1541 1540
1551 1550 1550 1550 1550 1550 1550 1550 1551 1552 1552 1553 1554 1556 1557 1558 1558 1559 1559 1559 1559 1559 1559 1559 1559 1559 1559 1560 1560 1560 1560 1561 1561 1561 1561 1561 1561 1561 1560 1559 1559 1559 1559 1559 1559 1558 1558 1557 1557 1556 1555 1555 1554 1553 1552 1552 1551 1550 1549 1549 1548 1548 1548 1547 1547 1546 1545 1544 1543 1542 1541 1540 1539 1538
1547 1546 1546 1545 1545 1546 1545 1545 1546 1548 1550 1550 1551 1552 1554 1555 1555 1556 1556 1557 1557 1556 1556 1556 1556 1557 1557 1558 1558 1559 1560 1560 1560 1560 1560 1560 1560 1560 1559 1558 1558 1558 1558 1558 1558 1558 1557 1557 1556 1555 1555 1554 1553 1552 1551 1551 1550 1549 1548 1547 1547 1546 1546 1546 1545 1545 1544 1543 1542 1540 1539 1538 1537 1536
1545 1545 1544 1542 1542 1542 1541 1541 1544 1547 1549 1549 1549 1550 1551 1551 1552 1553 1553 1554 1553 1553 1553 1554 1555 1555 1556 1556 1557 1558 1559 1559 1559 1559 1559 1559 1559 1558 1558 1557 1557 1557 1557 1557 1557 1556 1556 1556 1555 1554 1553 1553 1552 1551 1551 1550 1549 1549 1548 1546 1545 1545 1544 1544 1543 1543 1542 1541 1540 1539 1538 1537 1536 1535
1545 1545 1543 1541 1539 1538 1538 1539 1542 1543 1544 1545 1546 1547 1548 1549 1549 1550 1550 1551 1551 1551 1552 1553 1554 1554 1555 1555 1556 1557 1558 1559 1559 1559 1559 1558 1558 1557 1557 1556 1556 1556 1556 1556 1555 1555 1555 1554 1554 1553 1552 1552 1551 1551 1550 1549 1548 1548 1547 1546 1545 1544 1543 1542 1542 1541 1540 1539 1538 1537 1536 1535 1534 1533
1545 1544 1543 1542 1540 1538 1538 1538 1539 1540 1540 1541 1543 1545 1545 1546 1547 1548 1549 1550 1550 1550 1552 1553 1554 1554 1555 1555 1556 1557 1557 1558 1559 1559 1558 1558 1557 1557 1556 1555 1555 1555 1555 1554 1554 1554 1553 1553 1552 1552 1551 1551 1550 1549 1549 1548 1547 1546 1546 1545 1544 1543 1542 1541 1540 1539 1538 1537 1536 1535 1534 1532 1531 1530
1544 1544 1543 1542 1541 1540 1539 1539 1539 1539 1539 1541 1543 1544 1545 1545 1546 1547 1548 1548 1548 1549 1551 1553 1554 1554 1555 1555 1556 1556 1556 1557 1558 1558 1558 1557 1557 1556 1556 1555 1554 1554 1553 1552 1552 1552 1552 1551 1551 1550 1550 1549 1549 1548 1547 1546 1545 1544 1543 1542 1542 1541 1540 1539 1538 1537 1536 1535 1534 1533 1532 1530 1529 1527
1543 1543 1543 1543 1542 1541 1541 1540 1540 1540 1540 1542 1543 1545 1545 1546 1547 1547 1548 1548 1548 1549 1550 1551 1553 1553 1553 1553 1554 1555 1555 1556 1557 1557 1558 1557 1556 1556 1555 1554 1553 1553 1552 1551 1551 1550 1550 1549 1549 1549 1548 1548 1547 1546 1545 1544 1543 1542 1541 1540 1539 1538 1537 1537 1536 1535 1534 1533 1532 1531 1530 1528 1527 1525
1543 1543 1543 1543 1543 1543 1542 1542 1542 1542 1542 1542 1543 1545 1545 1546 1546 1547 1547 1548 1548 1548 1549 1549 1550 1551 1552 1551 1552 1553 1554 1555 1556 1556 1557 1556 1555 1555 1554 1553 1553 1552 1551 1550 1550 1549 1548 1548 1547 1547 1547 1546 1545 1544 1543 1542 1541 1540 1539 1538 1537 1536 1534 1533 1533 1532 1531 1530 1529 1528 1526 1525 1524 1522
1544 1543 1543 1543 1544 1544 1543 1543 1543 1544 1544 1544 1544 1545 1545 1546 1546 1546 1547 1547 1547 1547 1547 1548 1549 1550 1550 1551 1552 1553 1554 1554 1555 1555 1555 1555 1554 1554 1553 1552 1552 1551 1550 1549 1548 1548 1547 1547 1546 1546 1545 1544 1543 1543 1542 1540 1539 1538 1536 1535 1534 1533 1531 1530 1529 1528 1527 1526 1525 1524 1523 1521 1520 1519
1543 1543 1543 1543 1544 1544 1543 1543 1544 1544 1545 1546 1546 1546 1546 1547 1547 1547 1546 1546 1547 1547 1547 1548 1548 1549 1550 1550 1551 1552 1553 1553 1553 1554 1553 1553 1552 1552 1551 1551 1550 1549 1548 1548 1547 1546 1546 1545 1544 1544 1543 1542 1541 1540 1539 1538 1536 1535 1533 1532 1531 1529 1528 1527 1525 1524 1523 1522 1520 1519 1518 1518 1516 1515
1543 1543 1543 1544 1544 1544 1544 1544 1544 1545 1546 1546 1547 1547 1547 1547 1547 1547 1547 1547 1547 1547 1548 1548 1548 1549 1549 1550 1551 1551 1552 1552 1552 1552 1552 1551 1550 1550 1549 1548 1548 1547 1546 1546 1545 1544 1543 1542 1541 1541 1540 1540 1539 1537 1536 1535 1533 1531 1530 1528 1527 1525 1524 1523 1522 1521 1520 1519 1517 1516 1515 1514 1513 1512
1542 1543 1543 1544 1544 1545 1545 1545 1545 1545 1546 1546 1547 1547 1547 1547 1547 1547 1548 1548 1548 1548 1548 1547 1548 1548 1549 1549 1550 1550 1550 1551 1551 1550 1550 1549 1548 1547 1547 1546 1545 1544 1544 1543 1542 1541 1540 1539 1538 1537 1536 1535 1535 1534 1533 1532 1531 1528 1526 1525 1524 1522 1521 1520 1519 1519 1518 1516 1515 1513 1512 1511 1510 1509
1543 1543 1543 1544 1544 1545 1545 1545 1546 1546 1546 1547 1547 1547 1547 1547 1547 1548 1548 1548 1548 1548 1547 1547 1547 1547 1548 1548 1548 1549 1549 1549 1549 1548 1548 1547 1546 1545 1544 1543 1543 1542 1541 1540 1539 1538 1537 1536 1535 1534 1532 1531 1530 1530 1529 1529 1528 1525 1523 1523 1522 1520 1519 1517 1517 1516 1515 1514 1512 1511 1510 1509 1508 1507
1543 1544 1544 1544 1545 1545 1546 1546 1547 1547 1547 1548 1548 1547 1547 1548 1548 1548 1548 1548 1547 1547 1547 1547 1546 1546 1547 1547 1547 1547 1547 1547 1547 1546 1545 1544 1543 1543 1542 1541 1540 1539 1539 1537 1536 1535 1534 1533 1532 1530 1529 1528 1527 1525 1525 1524 1524 1523 1521 1519 1518 1517 1516 1514 1513 1513 1512 1511 1510 1509 1508 1507 1506 1505
1544 1545 1545 1546 1546 1547 1547 1547 1548 1548 1548 1548 1548 1548 1548 1548 1548 1548 1547 1547 1547 1546 1546 1546 1546 1546 1546 1545 1545 1546 1545 1545 1544 1543 1542 1542 1541 1540 1539 1538 1537 1537 1536 1535 1533 1532 1531 1530 1529 1527 1526 1525 1523 1522 1521 1520 1520 1519 1518 1516 1514 1513 1513 1512 1511 1510 1509 1508 1507 1506 1505 1504 1503 1502
1545 1546 1546 1546 1547 1547 1547 1548 1548 1548 1548 1548 1548 1548 1548 1547 1547 1547 1546 1546 1545 1545 1545 1544 1544 1544 1544 1543 1543 1543 1543 1542 1542 1541 1540 1539 1538 1537 1536 1535 1534 1533 1532 1531 1530 1529 1528 1527 1526 1524 1523 1522 1521 1520 1519 1518 1517 1516 1516 1514 1513 1512 1511 1509 1508 1508 1507 1506 1504 1503 1502 1501 1500 1499
1546 1546 1546 1547 1547 1547 1548 1548 1548 1548 1548 1548 1548 1547 1547 1547 1546 1545 1545 1544 1544 1543 1543 1542 1542 1542 1541 1541 1540 1540 1539 1539 1538 1537 1536 1536 1535 1534 1533 1532 1531 1530 1529 1528 1527 1526 1525 1524 1523 1522 1520 1519 1518 1517 1517 1516 1515 1515 1514 1513 1512 1511 1510 1509 1508 1506 1505 1503 1502 1501 1500 1499 1498 1497
1546 1547 1547 1547 1547 1547 1547 1547 1547 1547 1547 1547 1547 1546 1546 1545 1545 1544 1543 1542 1542 1541 1541 1540 1539 1539 1538 1538 1537 1537 1536 1536 1535 1534 1533 1532 1532 1531 1530 1529 1528 1527 1526 1525 1524 1523 1522 1521 1520 1519 1518 1517 1516 1516 1515 1514 1513 1512 1512 1511 1510 1510 1509 1508 1507 1506 1504 1502 1501 1499 1498 1497 1496 1495
1546 1547 1547 1547 1547 1547 1547 1547 1547 1546 1546 1546 1545 1545 1544 1544 1543 1542 1541 1541 1540 1539 1538 1537 1537 1536 1535 1535 1534 1534 1533 1533 1532 1532 1531 1530 1529 1528 1527 1526 1525 1524 1523 1522 1521 1521 1520 1519 1518 1518 1517 1516 1515 1514 1513 1512 1511 1510 1509 1509 1508 1508 1508 1507 1507 1506 1504 1502 1500 1499 1497 1496 1494 1493
1546 1546 1546 1546 1546 1546 1546 1546 1546 1545 1545 1544 1544 1543 1542 1542 1541 1540 1539 1538 1538 1537 1536 1535 1535 1534 1533 1532 1532 1531 1531 1530 1530 1529 1528 1528 1527 1526 1525 1524 1523 1522 1521 1520 1519 1519 1518 1517 1517 1516 1515 1514 1513 1512 1511 1510 1510 1509 1508 1508 1507 1506 1506 1505 1505 1504 1503 1502 1500 1499 1497 1496 1494 1493
1545 1545 1545 1545 1545 1545 1545 1544 1544 1543 1543 1542 1541 1541 1540 1539 1539 1538 1537 1536 1535 1535 1534 1533 1532 1532 1531 1530 1530 1529 1529 1528 1528 1527 1526 1525 1524 1524 1523 1522 1521 1520 1519 1518 1517 1517 1517 1516 1515 1514 1513 1512 1511 1510 1510 1509 1509 1508 1508 1507 1506 1505 1504 1503 1502 1502 1501 1500 1499 1497 1496 1495 1493 1492